Location: Saratoga Springs
(43.0831°N, 73.7850°W)
Time: 08:33:20
(UTC-04:00)

Vanguard 2 Rocket - Pass Details

Date: 24 April 2024
Orbit: 556 x 3304 km, 32.9° (Epoch: 22 May)

Event Time Altitude Azimuth Distance (km) Brightness Sun altitude
Rises 01:22:47 0° 272° (W) 6,811 11.3 -33.5°
Reaches altitude 10° 01:27:10 10° 268° (W) 6,001 10.9 -33.3°
Maximum altitude 01:45:55 53° 200° (SSW) 3,741 9.4 -32.6°
Drops below altitude 10° 02:02:38 10° 130° (SE) 5,392 10.6 -31.7°
Sets 02:06:21 0° 125° (SE) 6,108 11.0 -31.4°
